IPM 3 & PERSEI DEB (50570 NORAD) Tracking and Keplerian Element Data

This shows tracking and keplerian element data for the satellite.

Feedback or suggestion? Click here.




ElementValue
Catalog50570
NameIPM 3 & PERSEI DEB
Epoch Orbit26
Epoch Day364.29296312
Epoch Year2021
RAAN335.6633
Inclination63.3437
Eccentricity0.0030136
Argument of Perigee287.927
Mean Anonmoly72.3369
Mean Motion16.35075562
Decay Rate0.01648817
L11 50570U 21133C 21364.29296312 .01648817 84860-5 18127-3 0 9995
L22 50570 63.3437 335.6633 0030136 287.9270 72.3369 16.35075562 260

Live tracking and technical data element details for IPM 3 & PERSEI DEB (NORAD 50570). IPM 3 & PERSEI DEB can be tracked NOW for your location showing map with azimuth and elevation plus other details from your city location.

Track the satellite on the map from your city or location and see movement details for azimuth, elevation, latitude, longitude, range, height, and movement on the map or in text.







IsCatalogInMostPopularTable: catalog: 50570, numindb: 21
Update: records affected: 1



GetName: 50570 IPM 3 & PERSEI DEB

Hit Count: updated at: Mon, 23 May 2022 20:14:57 GMT